Showing default

EXPLORER 11, 107

Orbit data source: Space-Track

EXPLORER 11, 107 is a payload satellite owned by GSFC (US) in LEO that was launched on Thu, 27 Apr 1961 UTC via a JUNO II launch vehicle from the Air Force Eastern Test Range (AFETR). Payload-class satellites include a variety of spacecraft equipped with specific instruments for various scientific and technological missions. These include communications satellites like Starlink; space stations such as the ISS; scientific satellites like the Hubble; Earth observation satellites from companies like Planet Labs, Umbra, and HawkEye 360; GPS; miniature CubeSats for education and research; and military/defense satellites.

Loading next visibility...
Identifier
107, 1961-013A
Orbit
LEO
Last TLE update
19 hours ago
Origin
Manufacturer
NASA MSFC
Mission
Civil Astronomy
Bus & Motor
S-15, Unknown motor
Mass
45 kg wet, 40 kg dry
Launch date (UTC)
1961-04-27 (64 years ago)
Launch vehicle
JUNO II
Launch site
Air Force Eastern Test Range (AFETR)
Object type
Payload
Rocket body
Debris
Shape & HBR
Cyl, 1.1 m
Radar Cross Section
0.295 m², Medium (>0.1 m² and < 1m²)

Expand to show TLE details & history

TLE from 19 hours ago
0 EXPLORER 11
1 00107U 61013A   25186.10932337  .00001163  00000-0  12528-3 0  9991
2 00107  28.7846 154.2756 0503987 132.1915 232.2583 14.19843411227089
Epoch: 2025-07-05T02:37Z
TLE epoch observation values (Epoch: 2025-07-05T02:37:25.539Z)
Latitude
Longitude
-168.4329°
Altitude
1,057.345 km
Speed
7.206 km/s
True Right ascension
10h 17m 06s
True Declination
0° 00' 00"
Sunlit
Object was in daylight at epoch
Visualization orbit readout
Latitude
-10.16765°
Longitude
25.85503°
Altitude
639.607 km
Speed
7.637 km/s
Apparent Right ascension
22h 43m 57s
Apparent Declination
-24° 27' 03"
Sunlit
Object is in full shadow
Visualization observer readout
Local Sidereal Time
10:01:06
Azimuth
326.585° NNW
Elevation
-72.106°
Doppler factor
1
Orbital elements
Apogee altitude
1,193.166 km
Perigee altitude
466.616 km
Semi-major axis
7,208.028 km
Eccentricity
0.0504
Inclination
28.7846°
RAAN
154.2756°
Arg. of periapsis
132.1915°
True anomaly
Unknown
Mean anomaly
232.2583°
Eccentric anomaly
Unknown
Mean motion
3.54665 °/min
Orbital period
101.5 mins
BSTAR
0.00012528
Loading maneuver chart data...
Loading SW <> Apogee altitude chart data...
Loading historical data...
Loading historical data...
Loading historical data...
Loading historical data...
Loading historical data...
Loading historical data...
Loading historical data...
Other satellites on launch #13 in the year 1961 (1961-04-27 UTC)

EXPLORER 11 Visibility forecast

Observer location: undefined°, undefined°

Span
Click to sort rows by Start time (UTC) header in descending order
Start Az.
Max El. time (UTC)
Max El. Az.
Max El.
End time (UTC)
End Az.
4 mins2025-07-06 02:33:58.516Z197.139° SSW2025-07-06 02:35:58.516Z167.117° S17.366°2025-07-06 02:37:58.516Z137.951° SSE
4 mins2025-07-06 04:20:58.516Z212.049° SW2025-07-06 04:21:58.516Z196.01° SSW16.765°2025-07-06 04:24:58.516Z146.496° SSE
|